TimeCST,TemperatureF,Dew PointF,Humidity,Sea Level PressureIn,VisibilityMPH,Wind Direction,Wind SpeedMPH,Gust SpeedMPH,PrecipitationIn,Events,Conditions,WindDirDegrees,DateUTC
12:11 AM,12.2,1.4,62,30.32,10.0,Calm,Calm,-,N/A,,Clear,0,2014-03-05 06:11:00
12:31 AM,10.4,-0.4,62,30.33,10.0,Calm,Calm,-,N/A,,Clear,0,2014-03-05 06:31:00
12:51 AM,10.4,1.4,67,30.34,10.0,Calm,Calm,-,N/A,,Clear,0,2014-03-05 06:51:00
1:11 AM,8.6,1.4,73,30.34,10.0,Calm,Calm,-,N/A,,Clear,0,2014-03-05 07:11:00
1:31 AM,10.4,1.4,67,30.34,10.0,Calm,Calm,-,N/A,,Clear,0,2014-03-05 07:31:00
1:51 AM,10.4,1.4,67,30.34,10.0,Calm,Calm,-,N/A,,Clear,0,2014-03-05 07:51:00
2:11 AM,10.4,-0.4,62,30.35,10.0,ENE,3.5,-,N/A,,Clear,60,2014-03-05 08:11:00
2:31 AM,10.4,-0.4,62,30.35,10.0,NE,3.5,-,N/A,,Clear,50,2014-03-05 08:31:00
2:51 AM,8.6,-2.2,62,30.36,10.0,East,3.5,-,N/A,,Clear,80,2014-03-05 08:51:00
3:11 AM,8.6,-2.2,62,30.36,10.0,NE,3.5,-,N/A,,Clear,50,2014-03-05 09:11:00
3:31 AM,6.8,-4.0,61,30.36,10.0,ENE,3.5,-,N/A,,Clear,60,2014-03-05 09:31:00
3:51 AM,6.8,-4.0,61,30.37,10.0,Calm,Calm,-,N/A,,Clear,0,2014-03-05 09:51:00
4:11 AM,6.8,-4.0,61,30.38,10.0,ENE,3.5,-,N/A,,Clear,70,2014-03-05 10:11:00
4:31 AM,5.0,-4.0,66,30.38,10.0,ENE,3.5,-,N/A,,Clear,70,2014-03-05 10:31:00
4:51 AM,5.0,-4.0,66,30.39,10.0,East,3.5,-,N/A,,Clear,80,2014-03-05 10:51:00
5:11 AM,5.0,-4.0,66,30.39,10.0,ENE,3.5,-,N/A,,Clear,70,2014-03-05 11:11:00
5:31 AM,5.0,-4.0,66,30.41,10.0,ENE,3.5,-,N/A,,Clear,70,2014-03-05 11:31:00
5:51 AM,3.2,-4.0,72,30.41,10.0,ENE,4.6,-,N/A,,Clear,70,2014-03-05 11:51:00
6:11 AM,3.2,-4.0,72,30.41,10.0,ENE,4.6,-,N/A,,Clear,70,2014-03-05 12:11:00
6:31 AM,3.2,-4.0,72,30.42,10.0,ENE,4.6,-,N/A,,Clear,70,2014-03-05 12:31:00
6:51 AM,3.2,-4.0,72,30.42,10.0,ENE,5.8,-,N/A,,Clear,70,2014-03-05 12:51:00
7:11 AM,5.0,-2.2,72,30.42,10.0,ENE,4.6,-,N/A,,Clear,70,2014-03-05 13:11:00
7:31 AM,5.0,-4.0,66,30.42,10.0,East,4.6,-,N/A,,Clear,80,2014-03-05 13:31:00
7:51 AM,6.8,-2.2,67,30.43,10.0,ENE,3.5,-,N/A,,Clear,70,2014-03-05 13:51:00
8:11 AM,8.6,-4.0,57,30.45,10.0,Calm,Calm,-,N/A,,Clear,0,2014-03-05 14:11:00
8:31 AM,10.4,-2.2,57,30.46,10.0,East,3.5,-,N/A,,Clear,90,2014-03-05 14:31:00
8:51 AM,12.2,-0.4,57,30.47,10.0,East,3.5,-,N/A,,Clear,80,2014-03-05 14:51:00
9:11 AM,12.2,-0.4,57,30.48,10.0,East,3.5,-,N/A,,Clear,90,2014-03-05 15:11:00
9:31 AM,14.0,1.4,57,30.48,10.0,East,6.9,-,N/A,,Clear,100,2014-03-05 15:31:00
9:51 AM,14.0,1.4,57,30.46,10.0,ESE,9.2,-,N/A,,Clear,110,2014-03-05 15:51:00
10:11 AM,14.0,1.4,57,30.46,10.0,East,9.2,-,N/A,,Clear,100,2014-03-05 16:11:00
10:31 AM,17.6,3.2,53,30.45,10.0,East,9.2,-,N/A,,Clear,100,2014-03-05 16:31:00
10:51 AM,17.6,3.2,53,30.46,10.0,East,8.1,-,N/A,,Clear,100,2014-03-05 16:51:00
11:11 AM,19.4,3.2,49,30.45,10.0,ESE,9.2,-,N/A,,Clear,110,2014-03-05 17:11:00
11:31 AM,19.4,3.2,49,30.45,10.0,ESE,6.9,-,N/A,,Clear,120,2014-03-05 17:31:00
11:51 AM,21.2,3.2,46,30.45,10.0,SE,4.6,-,N/A,,Clear,130,2014-03-05 17:51:00
12:11 PM,21.2,5.0,50,30.45,10.0,ESE,5.8,-,N/A,,Clear,120,2014-03-05 18:11:00
12:31 PM,23.0,5.0,46,30.44,10.0,ESE,6.9,-,N/A,,Clear,110,2014-03-05 18:31:00
12:51 PM,24.8,6.8,46,30.44,10.0,East,4.6,-,N/A,,Clear,90,2014-03-05 18:51:00
1:11 PM,24.8,6.8,46,30.42,10.0,East,8.1,-,N/A,,Clear,100,2014-03-05 19:11:00
1:31 PM,26.6,8.6,47,30.42,10.0,East,3.5,-,N/A,,Clear,90,2014-03-05 19:31:00
1:51 PM,26.6,8.6,47,30.42,10.0,ESE,4.6,-,N/A,,Clear,110,2014-03-05 19:51:00
2:11 PM,24.8,8.6,50,30.42,10.0,SSE,8.1,-,N/A,,Clear,150,2014-03-05 20:11:00
2:31 PM,24.8,6.8,46,30.41,10.0,SE,6.9,-,N/A,,Clear,130,2014-03-05 20:31:00
2:51 PM,24.8,8.6,50,30.40,10.0,ESE,8.1,-,N/A,,Clear,120,2014-03-05 20:51:00
3:11 PM,24.8,8.6,50,30.40,10.0,SE,6.9,-,N/A,,Clear,130,2014-03-05 21:11:00
3:31 PM,24.8,8.6,50,30.39,10.0,SE,8.1,-,N/A,,Clear,130,2014-03-05 21:31:00
3:51 PM,24.8,8.6,50,30.39,10.0,ESE,4.6,-,N/A,,Clear,120,2014-03-05 21:51:00
4:12 PM,24.8,8.6,50,30.39,10.0,SE,4.6,-,N/A,,Clear,130,2014-03-05 22:12:00
4:31 PM,24.8,8.6,50,30.38,10.0,SE,5.8,-,N/A,,Clear,130,2014-03-05 22:31:00
4:51 PM,23.0,6.8,50,30.38,10.0,SE,5.8,-,N/A,,Clear,130,2014-03-05 22:51:00
5:11 PM,23.0,5.0,46,30.37,10.0,SSE,4.6,-,N/A,,Clear,160,2014-03-05 23:11:00
5:31 PM,21.2,5.0,50,30.37,10.0,SSE,5.8,-,N/A,,Clear,150,2014-03-05 23:31:00
5:51 PM,19.4,5.0,54,30.37,10.0,South,4.6,-,N/A,,Clear,170,2014-03-05 23:51:00
6:11 PM,19.4,5.0,54,30.38,10.0,Calm,Calm,-,N/A,,Clear,0,2014-03-06 00:11:00
6:31 PM,17.6,5.0,58,30.38,10.0,SSE,4.6,-,N/A,,Clear,150,2014-03-06 00:31:00
6:51 PM,17.6,3.2,53,30.37,10.0,SE,5.8,-,N/A,,Clear,140,2014-03-06 00:51:00
7:11 PM,17.6,3.2,53,30.37,10.0,SE,6.9,-,N/A,,Clear,140,2014-03-06 01:11:00
7:31 PM,17.6,3.2,53,30.36,10.0,SSE,5.8,-,N/A,,Clear,150,2014-03-06 01:31:00
7:51 PM,17.6,3.2,53,30.34,10.0,SE,5.8,-,N/A,,Clear,140,2014-03-06 01:51:00
8:11 PM,17.6,3.2,53,30.33,10.0,SE,5.8,-,N/A,,Clear,140,2014-03-06 02:11:00
8:31 PM,14.0,1.4,57,30.34,10.0,SSE,4.6,-,N/A,,Clear,150,2014-03-06 02:31:00
8:51 PM,14.0,1.4,57,30.34,10.0,SE,3.5,-,N/A,,Clear,140,2014-03-06 02:51:00
9:11 PM,14.0,1.4,57,30.34,10.0,SSE,3.5,-,N/A,,Clear,150,2014-03-06 03:11:00
9:31 PM,14.0,1.4,57,30.34,10.0,SSE,3.5,-,N/A,,Clear,150,2014-03-06 03:31:00
9:51 PM,14.0,1.4,57,30.34,10.0,SE,4.6,-,N/A,,Clear,140,2014-03-06 03:51:00
10:11 PM,14.0,1.4,57,30.34,10.0,SSE,3.5,-,N/A,,Clear,150,2014-03-06 04:11:00
10:31 PM,12.2,1.4,62,30.33,10.0,SSE,4.6,-,N/A,,Clear,150,2014-03-06 04:31:00
10:51 PM,12.2,1.4,62,30.31,10.0,SE,5.8,-,N/A,,Clear,140,2014-03-06 04:51:00
11:11 PM,12.2,1.4,62,30.31,10.0,SSE,6.9,-,N/A,,Clear,160,2014-03-06 05:11:00
11:31 PM,12.2,1.4,62,30.32,10.0,South,4.6,-,N/A,,Clear,180,2014-03-06 05:31:00
11:51 PM,12.2,1.4,62,30.32,10.0,SSE,3.5,-,N/A,,Clear,160,2014-03-06 05:51:00